Flag for U.S.A. Weather past 2 weeks in Virginia Beach, Virginia, U.S.A.

Now
92 °F

Passing clouds.


Feels Like: 100 °F
Forecast: 76 / 93 °F
Wind: 10 mph from Southwest

Location: Virginia Beach - Oceana

Current Time: Sep 2, 2014 at 1:13:00 PM

Latest Report: Sep 2, 2014 at 11:56 AM


Visibility: 10 mi

Pressure: 30.00 "Hg

Humidity: 52%

Dew point: 72 °F

Location of Virginia BeachLocation

Historic Weather in Virginia Beach — Graph

°F

Virginia Beach temperature yesterday

Maximum temperature yesterday: 92 °F (at 3:56 PM)
Minimum temperature yesterday: 76 °F (at 5:56 AM)
Average temperature yesterday: 84 °F

Past Weeks' High & Low Weather Summary

 TemperatureHumidityPressure
High92 °F (Sep 1, 3:56 PM)97% (Aug 19, 3:56 AM)30.24 "Hg (Aug 19, 3:56 AM)
Low67 °F (Aug 28, 4:56 AM)48% (Aug 31, 3:56 PM)29.76 "Hg (Aug 19, 2:56 AM)
Average77 °F76%30.02 "Hg
* Reported Aug 18 11:56 AM — Sep 2 11:56 AM, Virginia Beach, Weather by CustomWeather, © 2014

Note: Actual official high and low records may vary slightly from our data, if they occured in-between our weather recording intervals... More about our weather records

Advertising

Virginia Beach weather history for previous 24 hours

 ConditionsComfort  
Time TempWeatherWind HumidityBarometerVisibility
11:56 AM
Sep 2
92 °FPassing clouds.10 mph52%30.00 "Hg10 mi
10:56 AM88 °FPassing clouds.10 mph61%30.02 "Hg10 mi
9:56 AM85 °FPassing clouds.12 mph70%30.02 "Hg10 mi
8:56 AM82 °FPassing clouds.12 mph79%30.03 "Hg10 mi
7:56 AM79 °FScattered clouds.12 mph88%30.03 "Hg10 mi
6:56 AM78 °FPassing clouds.10 mph90%30.02 "Hg10 mi
5:56 AM78 °FPassing clouds.10 mph90%30.01 "Hg10 mi
4:56 AM79 °FPassing clouds.9 mph90%30.00 "Hg10 mi
3:56 AM79 °FPassing clouds.7 mph90%30.00 "Hg10 mi
2:56 AM79 °FPassing clouds.7 mph90%30.01 "Hg10 mi
1:56 AM80 °FPartly cloudy.8 mph87%30.02 "Hg10 mi
12:56 AM81 °FPartly cloudy.9 mph85%30.02 "Hg10 mi
11:56 PM
Sep 1
81 °FPartly cloudy.10 mph85%30.01 "Hg10 mi
10:56 PM82 °FPartly cloudy.10 mph79%30.01 "Hg10 mi
9:56 PM83 °FPartly cloudy.9 mph70%30.01 "Hg10 mi
8:56 PM85 °FPartly cloudy.8 mph63%30.00 "Hg10 mi
7:56 PM86 °FBroken clouds.7 mph65%29.99 "Hg10 mi
6:56 PM88 °FBroken clouds.10 mph59%29.98 "Hg10 mi
5:56 PM90 °FBroken clouds.12 mph56%29.99 "Hg10 mi
4:56 PM92 °FBroken clouds.14 mph52%29.98 "Hg10 mi
3:56 PM92 °FBroken clouds.15 mph52%29.98 "Hg10 mi
2:56 PM90 °FBroken clouds.15 mph57%30.00 "Hg10 mi
1:56 PM90 °FBroken clouds.10 mph56%30.02 "Hg10 mi
Weather by CustomWeather, © 2014

See weather overviewHow to use our weather pages